Zurück zum Katalog

STARLINK-11552

AktivKommunikationVLEO
NORAD 62907·PAYLOAD·🇺🇸 United States

Gestartet Feb 8, 2025 von Cape Canaveral Space Force Station

Loading…

Nächste Überflüge (nächste 24 Stunden)

TLE

AktuellSource: CelesTrak SupGP

Epoche: Sep 14, 2026, 21:47 UTC

1 62907C 25027A   26257.90812500 -.00018296  00000+0 -14214-3 0  2576
2 62907  43.0004 287.2258 0001510 261.4128 330.3907 15.70840557    10

Verfolge STARLINK-11552 in Echtzeit mit AllMySat

Download on the App Store